INMARSAT 3-F5
1 25153U 98006B   03025.00612270  .00000143  00000-0  10000-3 0  8369
2 25153   0.4572 357.0286 0004605 321.7814 192.2485  1.00270498 18256
HOT BIRD 4
1 25237U 98013A   03013.80550721  .00000107  00000-0  10000-3 0  3250
2 25237   0.0242 116.4838 0007929 193.6371 105.7449  1.00276095 18185
NOAA 15
1 25338U 98030A   03026.97686978 +.00000189 +00000-0 +10033-3 0 09899
2 25338 098.5502 049.7387 0011058 026.9582 333.2169 14.24234317244588
RESURS O1-N4
1 25394U 98043A   03027.21953686  .00000173  00000-0  94651-4 0  4332
2 25394  98.6362 105.5584 0001697 145.1356 214.9933 14.23869857236358
TMSAT
1 25396U 98043C   03026.97313741 -.00000043 +00000-0 +00000-0 0 09500
2 25396 098.6312 104.5189 0002930 173.1326 186.9895 14.23503693236318
TECHSAT 1B
1 25397U 98043D   03026.91586964 +.00000073 +00000-0 +51450-4 0 01035
2 25397 098.6262 103.3722 0000889 172.3515 187.7676 14.22954242236275
ASTRA 2A
1 25462U 98050A   03023.69277567  .00000000  00000-0  10000-3 0  5291
2 25462   0.0332  23.2945 0014243 166.1651 210.9165  1.00270553 16187
EUTELSAT W2
1 25491U 98056A   03024.89264866  .00000106  00000-0  00000+0 0  5696
2 25491   0.0323 111.3287 0004156 195.5397 154.2411  1.00273072 15803
HOT BIRD 5
1 25495U 98057A   03024.00223959  .00000159  00000-0  00000+0 0  4947
2 25495   0.0202 256.5555 0004157  52.8082 207.4319  1.00269503 15767
SEDSAT 1
1 25509U 98061B   03026.85277163  .00001099  00000-0  21081-3 0  7650
2 25509  31.4298 281.4506 0357407 104.5154 259.5351 14.27398893222068
PAN SAT
1 25520U 98064B   03027.14426250  .00002624  00000-0  13142-3 0  6330
2 25520  28.4584  13.1907 0005979 111.2576 248.8660 15.13765161234189
ISS (ZARYA)
1 25544U 98067A   03027.55399306 -.00004603  00000-0 -49926-4 0  6291
2 25544  51.6359   6.6577 0005623  83.4238  67.5385 15.59791686239067
ORSTED
1 25635U 99008B   03026.95137693 +.00000827 +00000-0 +21628-3 0 08179
2 25635 096.4480 018.6010 0146648 041.2292 319.9868 14.44793026206674
SUNSAT
1 25636U 99008C   03026.97241070 +.00000376 +00000-0 +10591-3 0 06924
2 25636 096.4516 017.3214 0150519 047.3356 314.0408 14.42929938206551
UOSAT 12
1 25693U 99021A   03027.46786195  .00000510  00000-0  92864-4 0  6495
2 25693  64.5593  78.4304 0018715 317.7646  42.1993 14.76363163202991
FENGYUN 1C
1 25730U 99025A   03027.18586819  .00000008  00000-0  27375-4 0  7523
2 25730  98.6355  52.4261 0015262  67.8247 292.4543 14.11731235191474
ASTRA 1H
1 25785U 99033A   03023.00000000  .00000123  00000-0  10000-3 0  3690
2 25785   0.0122 319.8851 0002995  65.1991 116.0174  1.00273184 13230
TERRA
1 25994U 99068A   03027.26993288  .00000413  00000-0  10163-3 0  6416
2 25994  98.2027 103.8337 0001127  61.7646 298.3642 14.57105060165426
JAWSAT
1 26061U 00004A   03026.89340920  .00000584  00000-0  21200-3 0  7505
2 26061 100.2110  79.7505 0034922 344.3733  15.6367 14.37798728157278
OPAL
1 26063U 00004C   03026.69331359  .00000160  00000-0  75583-4 0  7077
2 26063 100.2159  77.1192 0037298 351.6468   8.4081 14.35471770157100
ASUSAT
1 26065U 00004E   03027.20821954  .00000197  00000-0  88509-4 0  7186
2 26065 100.2155  77.8720 0037258 351.6370   8.4184 14.35498879157170
GOES 11
1 26352U 00022A   03025.39923521 -.00000036  00000-0  10000-3 0  9934
2 26352   0.0843 109.5107 0004488 167.9898 237.7936  1.00262988  9990
EUTELSAT W4
1 26369U 00028A   03024.79892362  .00000158  00000-0  00000+0 0  3460
2 26369   0.0463  39.2258 0006348 253.2207 154.9413  1.00274723  9802
FENGYUN 2B
1 26382U 00032A   03026.59904524 -.00000325 +00000-0 +00000-0 0 07769
2 26382 000.6261 287.0296 0000366 146.0947 012.0605 01.00260076009485
EUTELSAT W1
1 26487U 00052A   03026.88523360  .00000067  00000-0  10000-3 0  3485
2 26487   0.0153 287.3566 0003967 302.4083 224.6414  1.00270824  8791
ASTRA 2B
1 26494U 00054A   03023.00000000  .00000154  00000-0  00000+0 0  2523
2 26494   0.0178 354.5658 0005000 302.8402 212.7100  1.00276704  8652
NOAA 16
1 26536U 00055A   03026.69216933  .00000540  00000-0  31999-3 0  1829
2 26536  98.8990 335.1486 0010908  14.6886 345.4592 14.11892190120920
SAUDISAT 1A
1 26545U 00057A   03026.62289305  .00001358  00000-0  19880-3 0  4036
2 26545  64.5588 102.4447 0053623 242.4069 117.1593 14.78919470125823
UNISAT
1 26547U 00057C   03026.62086116 +.00002291 +00000-0 +31430-3 0 04237
2 26547 064.5571 104.7728 0060769 244.8277 114.6492 14.79645015125798
TIUNGSAT 1
1 26548U 00057D   03026.68074104 +.00001587 +00000-0 +21826-3 0 04097
2 26548 064.5571 095.4095 0046862 241.5152 118.1211 14.81190398125987
SAUDISAT 1B
1 26549U 00057E   03027.31919024  .00001400  00000-0  20863-3 0  6768
2 26549  64.5571 104.3040 0057814 242.8310 116.6888 14.77861906125851
AMSAT OSCAR 40
1 26609U 00072B   03018.40123252 -.00000010  00000-0  10000-3 0  3050
2 26609   7.9708  69.8773 7935358 134.4243 325.7472  1.25596623 10197
GOES 12
1 26871U 01031A   03027.44413944 -.00000125  00000-0  10000-3 0  7928
2 26871   0.3818 276.9016 0004300 347.2883 280.2513  1.00364071  5614
PCSAT
1 26931U 01043C   03027.55007346  .00000232  00000-0  12383-3 0  3879
2 26931  67.0482 312.2991 0005217 261.7066  98.3444 14.29103831 69201
SAPPHIRE
1 26932U 01043D   03026.97108810 +.00000148 +00000-0 +90413-4 0 03858
2 26932 067.0573 313.4989 0005767 240.9590 119.0933 14.29285887069143
ENVISAT
1 27386U 02009A   03027.46924043  .00000167  00000-0  78183-4 0  8849
2 27386  98.5458  96.3384 0000941  96.4611 263.6680 14.32248805 47583
IDEFIX/ARIANE 42P
1 27422U 02021B   03026.96991476 +.00000253 +00000-0 +11988-3 0 02223
2 27422 098.6986 106.2724 0012089 212.9077 147.1352 14.27957596038239
NOAA 17
1 27453U 02032A   03026.92917377 +.00000286 +00000-0 +14588-3 0 02846
2 27453 098.7609 098.2552 0012639 063.9284 296.3193 14.23279645030746
HOT BIRD 6
1 27499U 02038A   03013.80550721  .00000106  00000-0  10000-3 0   665
2 27499   0.0928  32.8693 0008090 290.3889  92.5421  1.00271722  1476
RUBIN 2
1 27605U 02058A   03026.74296545  .00000684  00000-0  13099-3 0   396
2 27605  64.5538 266.5521 0029851 119.4331 240.9748 14.71396196  5452
STS 107
1 27647U 03003A   03027.58333333  .00067743  73201-5  12223-3 0   466
2 27647  39.0184 156.1829 0009369  99.7923 311.5781 16.00898656  1748
